timestamp,wind_dir_avg,wind_spd_avg,wind_spd_max_dir,wind_spd_gust,battery_voltage,lat,long
2019-11-22 00:04:01+00:00,56.0,20.67,57.0,24.27,12.41,47.59359,-54.27349
2019-11-22 00:14:01+00:00,54.0,18.43,51.0,22.49,12.41,47.59359,-54.27349
2019-11-22 00:24:01+00:00,57.0,18.15,61.0,22.42,12.41,47.59359,-54.27349
2019-11-22 00:34:01+00:00,53.0,20.87,52.0,23.43,12.41,47.59359,-54.27349
2019-11-22 00:44:01+00:00,52.0,19.89,55.0,22.13,12.41,47.59359,-54.27349
2019-11-22 00:54:01+00:00,51.0,19.77,50.0,22.88,12.41,47.59359,-54.27349
2019-11-22 01:04:01+00:00,47.0,19.12,43.0,22.09,12.41,47.59359,-54.27349
2019-11-22 01:14:01+00:00,52.0,18.09,60.0,23.18,12.41,47.59359,-54.27349
2019-11-22 01:24:01+00:00,48.0,19.31,45.0,22.62,12.41,47.59359,-54.27349
2019-11-22 01:34:01+00:00,48.0,19.24,44.0,24.08,12.41,47.59359,-54.27349
2019-11-22 01:44:01+00:00,51.0,18.78,57.0,21.92,12.41,47.59359,-54.27349
2019-11-22 01:54:01+00:00,46.0,18.92,45.0,22.24,12.41,47.59359,-54.27349
2019-11-22 02:04:01+00:00,49.0,19.12,46.0,21.1,12.41,47.59359,-54.27349
2019-11-22 02:14:01+00:00,48.0,19.52,49.0,23.06,12.41,47.59359,-54.27349
2019-11-22 02:24:01+00:00,44.0,18.49,50.0,21.56,12.41,47.59359,-54.27349
2019-11-22 02:34:01+00:00,43.0,20.37,44.0,23.04,12.41,47.59359,-54.27349
2019-11-22 02:44:01+00:00,50.0,18.09,59.0,21.56,12.41,47.59359,-54.27349
2019-11-22 02:54:01+00:00,45.0,20.08,39.0,22.39,12.41,47.59359,-54.27349
2019-11-22 03:04:01+00:00,44.0,19.2,40.0,23.9,12.41,47.59359,-54.27349
2019-11-22 03:14:01+00:00,45.0,20.12,47.0,24.01,12.41,47.59359,-54.27349
2019-11-22 03:24:01+00:00,43.0,22.5,39.0,28.52,12.41,47.59359,-54.27349
2019-11-22 03:34:01+00:00,43.0,21.88,43.0,26.85,12.41,47.59359,-54.27349
2019-11-22 03:44:01+00:00,45.0,19.72,41.0,23.87,12.41,47.59359,-54.27349
2019-11-22 03:54:01+00:00,42.0,19.48,38.0,22.68,12.41,47.59359,-54.27349
2019-11-22 04:04:01+00:00,38.0,20.51,36.0,25.54,12.41,47.59359,-54.27349
2019-11-22 04:14:01+00:00,39.0,17.51,30.0,20.9,12.41,47.59359,-54.27349
2019-11-22 04:24:01+00:00,36.0,20.48,40.0,23.23,12.41,47.59359,-54.27349
2019-11-22 04:34:01+00:00,37.0,20.63,32.0,24.29,12.41,47.59359,-54.27349
2019-11-22 04:44:01+00:00,37.0,21.09,40.0,24.12,12.41,47.59359,-54.27349
2019-11-22 04:54:01+00:00,38.0,17.86,35.0,21.35,12.41,47.59359,-54.27349
2019-11-22 05:04:01+00:00,40.0,17.53,49.0,21.56,12.41,47.59359,-54.27349
2019-11-22 05:14:01+00:00,40.0,18.65,46.0,21.98,12.41,47.59359,-54.27349
2019-11-22 05:24:01+00:00,40.0,19.52,35.0,23.91,12.41,47.59359,-54.27349
2019-11-22 05:34:01+00:00,35.0,19.68,34.0,22.2,12.41,47.59359,-54.27349
2019-11-22 05:44:01+00:00,34.0,18.35,38.0,21.63,12.41,47.59359,-54.27349
2019-11-22 05:54:01+00:00,35.0,19.06,33.0,21.95,12.41,47.59359,-54.27349
2019-11-22 06:04:01+00:00,37.0,19.54,40.0,22.78,12.41,47.59359,-54.27349
2019-11-22 06:14:01+00:00,36.0,21.31,37.0,24.89,12.33,47.59359,-54.27349
2019-11-22 06:24:01+00:00,36.0,18.57,37.0,22.51,12.33,47.59359,-54.27349
2019-11-22 06:34:01+00:00,32.0,17.85,35.0,21.83,12.33,47.59359,-54.27349
2019-11-22 06:44:01+00:00,34.0,16.99,36.0,19.72,12.33,47.59359,-54.27349
2019-11-22 06:54:01+00:00,37.0,17.49,31.0,21.31,12.33,47.59359,-54.27349
2019-11-22 07:04:01+00:00,32.0,16.38,45.0,20.34,12.33,47.59359,-54.27349
2019-11-22 07:14:01+00:00,27.0,16.42,34.0,22.02,12.33,47.59359,-54.27349
2019-11-22 07:24:01+00:00,21.0,15.34,23.0,18.34,12.33,47.59359,-54.27349
2019-11-22 07:34:01+00:00,19.0,16.38,17.0,20.7,12.33,47.59359,-54.27349
2019-11-22 07:44:01+00:00,18.0,16.14,26.0,20.66,12.33,47.59359,-54.27349
2019-11-22 07:54:01+00:00,21.0,16.32,32.0,21.94,12.33,47.59359,-54.27349
2019-11-22 08:04:01+00:00,21.0,16.72,23.0,21.35,12.33,47.59359,-54.27349
2019-11-22 08:14:01+00:00,17.0,16.32,25.0,19.55,12.33,47.59359,-54.27349
2019-11-22 08:24:01+00:00,18.0,18.56,18.0,22.78,12.33,47.59359,-54.27349
2019-11-22 08:34:01+00:00,14.0,16.8,12.0,21.49,12.33,47.59359,-54.27349
2019-11-22 08:44:01+00:00,8.0,19.19,4.0,22.08,12.33,47.59359,-54.27349
2019-11-22 08:54:01+00:00,11.0,17.12,20.0,20.14,12.33,47.59359,-54.27349
2019-11-22 09:04:01+00:00,9.0,17.05,2.0,22.83,12.33,47.59359,-54.27349
2019-11-22 09:14:01+00:00,11.0,17.74,13.0,21.05,12.33,47.59359,-54.27349
2019-11-22 09:24:01+00:00,17.0,15.62,14.0,19.6,12.33,47.59359,-54.27349
2019-11-22 09:34:01+00:00,16.0,17.11,14.0,22.02,12.33,47.59359,-54.27349
2019-11-22 09:44:01+00:00,14.0,16.94,18.0,20.03,12.33,47.59359,-54.27349
2019-11-22 09:54:01+00:00,16.0,15.71,22.0,18.35,12.33,47.59359,-54.27349
2019-11-22 10:04:01+00:00,13.0,16.92,5.0,20.1,12.33,47.59359,-54.27349
2019-11-22 10:14:01+00:00,14.0,15.36,13.0,18.98,12.33,47.59359,-54.27349
2019-11-22 10:24:01+00:00,11.0,17.23,14.0,20.11,12.33,47.59359,-54.27349
2019-11-22 10:34:01+00:00,8.0,18.35,7.0,21.65,12.33,47.59359,-54.27349
2019-11-22 10:44:01+00:00,8.0,18.17,11.0,20.28,12.33,47.59359,-54.27349
2019-11-22 10:54:01+00:00,6.0,14.78,4.0,17.06,12.33,47.59359,-54.27349
2019-11-22 11:04:01+00:00,6.0,14.89,8.0,17.26,12.33,47.59359,-54.27349
2019-11-22 11:14:01+00:00,7.0,16.11,0.0,19.23,12.33,47.59359,-54.27349
2019-11-22 11:24:01+00:00,5.0,18.98,7.0,21.39,12.33,47.59359,-54.27349
2019-11-22 11:34:01+00:00,9.0,17.79,15.0,20.14,12.33,47.59359,-54.27349
2019-11-22 11:44:01+00:00,7.0,16.7,8.0,19.44,12.33,47.59359,-54.27349
2019-11-22 11:54:01+00:00,10.0,16.41,2.0,19.86,12.33,47.59359,-54.27349
2019-11-22 12:04:01+00:00,12.0,16.23,7.0,19.14,12.33,47.59359,-54.27349
2019-11-22 12:14:01+00:00,15.0,17.55,12.0,21.15,12.49,47.59359,-54.27349
2019-11-22 12:24:01+00:00,13.0,17.01,13.0,19.87,12.49,47.59359,-54.27349
2019-11-22 12:34:01+00:00,18.0,16.63,33.0,18.95,12.49,47.59359,-54.27349
2019-11-22 12:44:01+00:00,19.0,14.86,16.0,17.92,12.49,47.59359,-54.27349
2019-11-22 12:54:01+00:00,16.0,15.18,13.0,17.89,12.49,47.59359,-54.27349
2019-11-22 13:04:01+00:00,18.0,14.75,12.0,18.87,12.49,47.59359,-54.27349
2019-11-22 13:14:01+00:00,15.0,17.26,12.0,20.43,13.68,47.59359,-54.27349
2019-11-22 13:24:01+00:00,13.0,14.21,13.0,16.96,13.68,47.59359,-54.27349
2019-11-22 13:34:01+00:00,17.0,15.81,19.0,18.23,13.68,47.59359,-54.27349
2019-11-22 13:44:01+00:00,16.0,14.59,15.0,19.13,13.68,47.59359,-54.27349
2019-11-22 13:54:01+00:00,14.0,15.11,10.0,17.75,13.68,47.59359,-54.27349
2019-11-22 14:04:01+00:00,15.0,17.56,23.0,19.79,13.68,47.59359,-54.27349
2019-11-22 14:14:01+00:00,14.0,15.79,10.0,19.06,13.68,47.59359,-54.27349
2019-11-22 14:24:01+00:00,11.0,14.03,8.0,16.39,13.68,47.59359,-54.27349
2019-11-22 14:34:01+00:00,10.0,14.73,10.0,17.84,13.68,47.59359,-54.27349
2019-11-22 14:44:01+00:00,10.0,16.0,6.0,19.51,13.68,47.59359,-54.27349
2019-11-22 14:54:01+00:00,12.0,15.49,16.0,18.46,13.68,47.59359,-54.27349
2019-11-22 15:04:01+00:00,6.0,16.97,5.0,19.63,13.68,47.59359,-54.27349
2019-11-22 15:14:01+00:00,12.0,14.27,15.0,16.67,13.76,47.59359,-54.27349
2019-11-22 15:24:01+00:00,7.0,13.87,6.0,15.5,13.76,47.59359,-54.27349
2019-11-22 15:34:01+00:00,7.0,13.57,2.0,16.22,13.76,47.59359,-54.27349
2019-11-22 15:44:01+00:00,10.0,13.88,11.0,16.79,13.76,47.59359,-54.27349
2019-11-22 15:54:01+00:00,13.0,14.73,8.0,17.0,13.76,47.59359,-54.27349
2019-11-22 16:04:01+00:00,5.0,14.52,359.0,18.3,13.76,47.59359,-54.27349
2019-11-22 16:14:01+00:00,7.0,14.7,5.0,17.18,14.32,47.59359,-54.27349
2019-11-22 16:24:01+00:00,16.0,13.71,24.0,16.32,14.32,47.59359,-54.27349
2019-11-22 16:34:01+00:00,4.0,14.44,2.0,17.97,14.32,47.59359,-54.27349
2019-11-22 16:44:01+00:00,1.0,14.17,5.0,15.78,14.32,47.59359,-54.27349
2019-11-22 16:54:01+00:00,10.0,13.73,11.0,15.61,14.32,47.59359,-54.27349
2019-11-22 17:04:01+00:00,15.0,12.56,17.0,14.15,14.32,47.59359,-54.27349
2019-11-22 17:14:01+00:00,6.0,12.8,10.0,14.74,13.76,47.59359,-54.27349
2019-11-22 17:24:01+00:00,6.0,12.47,17.0,13.85,13.76,47.59359,-54.27349
2019-11-22 17:34:01+00:00,8.0,13.05,10.0,14.92,13.76,47.59359,-54.27349
2019-11-22 17:44:01+00:00,6.0,13.33,1.0,15.59,13.76,47.59359,-54.27349
2019-11-22 17:54:01+00:00,7.0,12.62,11.0,14.88,13.76,47.59359,-54.27349
2019-11-22 18:04:01+00:00,11.0,12.98,7.0,14.84,13.76,47.59359,-54.27349
2019-11-22 18:14:01+00:00,13.0,11.99,16.0,14.44,13.92,47.59359,-54.27349
2019-11-22 18:24:01+00:00,11.0,12.37,12.0,13.98,13.92,47.59359,-54.27349
2019-11-22 18:34:01+00:00,5.0,12.8,5.0,14.41,13.92,47.59359,-54.27349
2019-11-22 18:44:01+00:00,13.0,12.26,14.0,13.73,13.92,47.59359,-54.27349
2019-11-22 18:54:01+00:00,7.0,11.25,5.0,12.63,13.92,47.59359,-54.27349
2019-11-22 19:04:01+00:00,9.0,13.04,8.0,14.77,13.92,47.59359,-54.27349
2019-11-22 19:14:01+00:00,11.0,13.29,11.0,15.46,13.84,47.59359,-54.27349
2019-11-22 19:24:01+00:00,16.0,12.35,13.0,14.4,13.84,47.59359,-54.27349
2019-11-22 19:34:01+00:00,15.0,12.25,11.0,14.12,13.84,47.59359,-54.27349
2019-11-22 19:44:01+00:00,12.0,13.45,7.0,16.25,13.84,47.59359,-54.27349
2019-11-22 19:54:01+00:00,9.0,12.8,10.0,14.28,13.84,47.59359,-54.27349
2019-11-22 20:04:01+00:00,6.0,11.41,9.0,13.29,13.84,47.59359,-54.27349
2019-11-22 20:14:01+00:00,1.0,10.07,354.0,13.15,13.05,47.59359,-54.27349
2019-11-22 20:24:01+00:00,357.0,11.51,356.0,13.51,13.05,47.59359,-54.27349
2019-11-22 20:34:01+00:00,355.0,10.11,1.0,11.79,13.05,47.59359,-54.27349
2019-11-22 20:44:01+00:00,2.0,9.96,3.0,12.42,13.05,47.59359,-54.27349
2019-11-22 20:54:01+00:00,0.0,9.53,356.0,11.81,13.05,47.59359,-54.27349
2019-11-22 21:04:01+00:00,357.0,9.4,358.0,11.48,13.05,47.59359,-54.27349
2019-11-22 21:14:01+00:00,349.0,8.73,347.0,10.54,12.73,47.59359,-54.27349
2019-11-22 21:24:01+00:00,350.0,9.44,353.0,10.86,12.73,47.59359,-54.27349
2019-11-22 21:34:01+00:00,352.0,9.81,349.0,11.55,12.73,47.59359,-54.27349
2019-11-22 21:44:01+00:00,355.0,10.28,2.0,12.27,12.73,47.59359,-54.27349
2019-11-22 21:54:01+00:00,351.0,9.9,353.0,10.87,12.73,47.59359,-54.27349
2019-11-22 22:04:01+00:00,346.0,12.11,348.0,13.6,12.73,47.59359,-54.27349
2019-11-22 22:14:01+00:00,355.0,11.31,2.0,12.87,12.65,47.59359,-54.27349
2019-11-22 22:24:01+00:00,350.0,9.87,352.0,11.25,12.65,47.59359,-54.27349
2019-11-22 22:34:01+00:00,348.0,9.99,341.0,12.21,12.65,47.59359,-54.27349
2019-11-22 22:44:01+00:00,1.0,8.81,2.0,11.11,12.65,47.59359,-54.27349
2019-11-22 22:54:01+00:00,0.0,8.49,347.0,9.93,12.65,47.59359,-54.27349
2019-11-22 23:04:01+00:00,351.0,8.89,347.0,10.4,12.65,47.59359,-54.27349
2019-11-22 23:14:01+00:00,340.0,8.45,330.0,9.48,12.65,47.59359,-54.27349
2019-11-22 23:24:01+00:00,349.0,8.24,348.0,9.71,12.65,47.59359,-54.27349
2019-11-22 23:34:01+00:00,354.0,8.25,346.0,9.63,12.65,47.59359,-54.27349
2019-11-22 23:44:01+00:00,342.0,7.99,335.0,10.33,12.65,47.59359,-54.27349
2019-11-22 23:54:01+00:00,339.0,9.73,344.0,10.87,12.65,47.59359,-54.27349
